Probability
0 0 0 0 0 0 0 0 0 0 0 0 6 13 19 39 55 52 55 68 74 77 81 71 65 68 58 48 58 45 42 42 55 58 55 52 48 45 35 32 23 23 19 13
0 0 0 0 0 0 0 0 0 0 0 0 3 6 19 52 65 58 65 71 74 84 77 77 68 61 68 71 65 61 52 55 52 55 42 48 48 39 42 35 26 23 19 16
0 0 0 0 0 0 0 0 0 0 3 6 3 29 48 58 55 61 74 65 74 77 87 84 77 81 77 74 71 65 58 55 58 52 45 42 35 42 48 48 42 32 23 16
0 0 0 0 0 0 3 0 3 3 10 16 23 23 35 45 55 71 68 71 74 77 84 84 77 77 77 68 71 61 58 48 61 55 39 45 52 52 55 52 45 45 39 23
0 0 0 0 0 0 0 3 3 6 6 6 19 23 29 42 61 74 65 74 81 84 77 87 81 74 74 68 65 52 42 55 55 55 52 48 45 55 48 48 45 45 45 35
0 0 0 0 0 0 0 3 13 13 16 10 19 35 39 48 52 65 68 71 81 81 84 90 90 81 74 68 65 48 48 55 61 68 65 61 61 65 58 48 45 42 42 39
0 0 0 0 0 0 0 13 16 19 29 32 42 42 45 48 55 55 68 74 74 87 87 90 94 90 81 68 68 58 55 58 74 68 71 61 71 74 68 58 45 45 48 45
0 0 0 3 6 16 35 32 19 26 26 32 39 32 32 32 39 48 48 52 55 77 84 84 90 90 84 74 74 71 68 65 68 71 55 55 81 77 77 58 55 55 58 55
0 3 16 6 13 19 26 23 16 19 16 26 19 35 32 32 35 42 42 55 61 71 84 84 84 81 74 84 84 77 65 71 71 68 77 68 74 71 61 68 48 42 45 39
3 3 3 3 6 13 13 13 13 13 13 16 16 19 29 32 39 45 55 58 58 68 74 84 84 81 87 84 81 81 74 71 74 74 71 74 71 65 58 55 42 39 39 39
0 0 0 0 3 3 3 3 10 10 10 10 19 23 29 39 39 45 52 68 68 81 84 81 81 84 84 81 81 77 71 71 71 74 71 71 68 52 61 42 45 45 52 45
3 0 0 3 3 3 6 10 10 10 10 13 23 29 29 32 39 45 48 55 71 68 74 74 74 77 81 81 81 81 68 71 71 65 71 68 48 42 16 13 6 0 0 0
3 3 3 3 6 3 6 10 10 10 10 16 26 29 29 32 35 39 42 52 55 65 65 65 68 71 74 74 74 71 68 68 65 58 58 61 48 39 29 3 0 0 0 0
0 3 3 3 6 6 6 10 10 10 6 10 16 23 29 29 29 26 35 42 39 42 39 45 48 55 65 71 71 71 58 48 52 61 52 52 48 39 32 29 16 3 0 0
3 6 3 3 10 6 6 10 13 10 13 19 16 23 26 26 26 32 35 32 32 32 39 39 39 35 39 32 42 42 42 39 39 35 35 32 26 23 23 23 26 16 6 0
3 0 3 3 6 3 3 10 13 13 16 19 19 16 19 26 19 26 29 29 32 32 29 29 29 32 29 29 29 35 39 19 23 39 29 26 26 23 23 23 19 13 10 0
0 0 3 3 6 6 6 6 16 16 16 19 19 19 19 26 23 23 19 23 26 26 26 26 26 23 26 26 23 23 26 23 10 19 26 19 23 26 23 19 19 16 13 3
6 3 6 13 16 10 10 10 16 16 16 19 16 16 16 16 19 19 19 16 16 16 16 19 19 16 23 19 23 16 16 19 29 23 23 19 19 23 26 16 10 6 10 3
0 0 6 13 16 13 13 10 10 6 10 13 13 13 13 13 10 10 13 10 13 13 13 13 6 19 19 19 16 19 16 16 19 23 23 3 10 6 10 3 0 0 0 0
0 3 3 10 10 10 6 6 6 10 10 10 10 10 10 10 10 10 10 10 10 13 13 13 13 13 13 13 6 13 13 13 10 6 10 10 3 3 3 3 3 0 0 0
3 3 3 3 3 3 3 3 3 6 6 6 6 6 3 3 3 3 3 3 3 3 3 3 6 6 6 3 3 6 6 6 6 10 10 6 3 3 3 3 0 0 0 0
6 3 3 3 3 3 3 3 0 0 3 3 0 0 3 3 3 3 3 3 0 0 3 3 0 0 0 0 3 0 0 0 0 0 0 3 3 3 6 3 0 3 3 0
0 0 0 0 0 0 0 0 0 0 0 0 0 0 0 0 0 0 0 0 0 0 0 0 0 0 0 0 0 0 0 0 0 0 0 0 0 0 3 0 0 0 0 0
0 0 0 0 0 0 0 0 0 0 0 0 0 0 0 0 0 0 0 0 0 0 0 0 0 0 0 0 0 0 0 0 0 0 0 0 0 0 0 0 0 0 0 0
0 0 0 0 0 0 0 0 0 0 0 0 0 0 0 0 0 0 0 0 0 0 0 0 0 0 0 0 0 0 0 0 0 0 0 0 0 0 0 0 0 0 0 0
0 0 0 0 0 0 0 0 0 0 0 0 0 0 0 0 0 0 0 0 0 0 0 0 0 0 0 0 0 0 0 0 0 0 0 0 0 0 0 0 0 0 0 0
0 0 0 0 0 0 0 0 0 0 0 0 0 0 0 0 0 0 0 0 0 0 0 0 0 0 0 0 0 0 0 0 0 0 0 0 0 0 0 0 0 0 0 0
Height
5777 5779 5780 5783 5785 5787 5788 5790 5791 5793 5792 5791 5789 5790 5790 5793 5797 5799 5801 5803 5804 5807 5809 5811 5813 5815 5817 5818 5820 5822 5824 5826 5827 5829 5831 5833 5835 5836 5838 5840 5842 5844 5845 5847
5771 5774 5775 5777 5780 5782 5784 5785 5787 5788 5788 5787 5785 5787 5788 5791 5794 5797 5799 5801 5803 5805 5807 5809 5811 5813 5815 5817 5819 5820 5822 5824 5826 5827 5829 5831 5833 5834 5836 5838 5840 5841 5843 5844
5766 5768 5770 5772 5775 5777 5779 5781 5783 5783 5783 5783 5783 5783 5786 5789 5791 5794 5796 5799 5801 5803 5805 5807 5809 5811 5813 5815 5817 5818 5820 5822 5824 5825 5827 5829 5831 5832 5834 5836 5837 5839 5840 5841
5761 5764 5765 5770 5769 5770 5773 5775 5777 5777 5778 5779 5780 5781 5782 5785 5787 5790 5793 5796 5798 5800 5802 5804 5807 5809 5811 5813 5815 5816 5818 5820 5821 5823 5825 5826 5828 5830 5831 5833 5834 5835 5837 5838
5755 5757 5759 5763 5764 5765 5768 5769 5770 5771 5773 5774 5776 5778 5779 5781 5784 5787 5790 5792 5794 5797 5799 5801 5803 5806 5808 5810 5812 5814 5816 5817 5819 5821 5822 5824 5825 5827 5828 5829 5831 5832 5833 5834
5749 5751 5754 5758 5759 5760 5762 5762 5763 5766 5768 5769 5772 5774 5776 5778 5780 5783 5785 5788 5790 5793 5795 5798 5800 5803 5805 5807 5810 5811 5813 5814 5816 5818 5819 5821 5822 5823 5825 5826 5827 5828 5829 5830
5743 5745 5748 5750 5752 5755 5758 5759 5759 5761 5763 5765 5767 5769 5771 5773 5776 5779 5781 5783 5785 5788 5791 5794 5797 5799 5801 5804 5806 5808 5809 5811 5813 5815 5816 5817 5819 5820 5821 5822 5823 5824 5825 5826
5737 5739 5743 5743 5745 5748 5750 5752 5754 5755 5758 5760 5762 5763 5765 5768 5771 5774 5777 5779 5781 5784 5787 5790 5792 5795 5797 5800 5802 5803 5806 5807 5809 5811 5812 5814 5815 5816 5817 5818 5819 5820 5820 5821
5731 5735 5735 5737 5739 5741 5744 5746 5748 5750 5752 5754 5756 5759 5761 5764 5767 5769 5772 5774 5776 5779 5782 5785 5788 5790 5793 5795 5797 5799 5801 5803 5805 5806 5808 5809 5811 5812 5813 5813 5814 5815 5815 5816
5724 5727 5729 5731 5733 5735 5738 5740 5742 5744 5746 5748 5751 5753 5756 5759 5762 5765 5767 5770 5772 5775 5777 5780 5782 5785 5787 5790 5792 5794 5796 5798 5800 5801 5803 5804 5805 5806 5807 5808 5808 5809 5809 5809
5717 5720 5723 5725 5727 5729 5732 5734 5737 5738 5741 5743 5746 5748 5751 5754 5757 5760 5763 5765 5767 5770 5772 5775 5777 5779 5782 5784 5786 5788 5790 5792 5794 5795 5797 5798 5799 5800 5801 5801 5802 5802 5802 5802
5712 5714 5717 5719 5721 5724 5726 5729 5731 5733 5736 5738 5741 5744 5747 5749 5751 5754 5757 5760 5762 5764 5767 5769 5771 5774 5776 5778 5780 5782 5784 5785 5787 5789 5790 5791 5792 5793 5793 5794 5794 5794 5794 5794
5707 5709 5711 5713 5715 5718 5720 5723 5725 5728 5730 5733 5736 5738 5741 5744 5747 5750 5752 5754 5756 5759 5761 5763 5765 5767 5769 5771 5773 5775 5777 5779 5780 5782 5783 5784 5784 5785 5786 5787 5786 5787 5787 5786
5701 5704 5706 5708 5710 5712 5715 5718 5720 5722 5725 5728 5730 5732 5736 5739 5742 5744 5746 5749 5751 5753 5756 5758 5760 5761 5763 5765 5766 5768 5770 5771 5773 5774 5775 5776 5777 5778 5778 5778 5778 5778 5778 5777
5696 5698 5700 5703 5705 5707 5710 5712 5715 5718 5720 5723 5726 5729 5732 5735 5737 5739 5741 5744 5746 5748 5750 5752 5754 5755 5757 5758 5760 5762 5764 5765 5766 5767 5768 5768 5769 5769 5769 5769 5769 5769 5769 5768
5691 5693 5696 5698 5701 5703 5705 5708 5710 5713 5716 5718 5721 5724 5727 5729 5732 5734 5736 5738 5741 5743 5745 5747 5748 5749 5751 5752 5754 5755 5757 5758 5759 5760 5760 5760 5761 5761 5761 5760 5760 5759 5759 5758
5687 5689 5692 5694 5697 5699 5701 5704 5707 5709 5711 5714 5716 5719 5722 5724 5727 5729 5731 5733 5735 5737 5739 5741 5742 5744 5745 5746 5748 5749 5750 5751 5752 5752 5753 5753 5753 5753 5752 5751 5750 5750 5749 5748
5683 5686 5688 5690 5693 5696 5698 5701 5703 5705 5708 5709 5711 5714 5717 5719 5722 5724 5726 5728 5729 5731 5733 5734 5736 5737 5738 5740 5741 5742 5743 5743 5744 5744 5744 5745 5744 5744 5743 5743 5741 5739 5738 5737
5680 5683 5685 5687 5690 5693 5695 5697 5699 5701 5704 5706 5708 5710 5713 5715 5717 5719 5721 5722 5724 5725 5727 5728 5729 5731 5732 5733 5734 5734 5735 5735 5735 5735 5735 5735 5735 5734 5733 5732 5731 5729 5727 5725
5678 5680 5683 5685 5688 5690 5692 5694 5696 5698 5700 5703 5705 5707 5709 5711 5713 5715 5716 5717 5719 5720 5721 5723 5723 5724 5725 5725 5726 5726 5726 5726 5726 5726 5726 5726 5725 5724 5723 5721 5720 5718 5715 5713
5676 5678 5681 5683 5686 5688 5690 5692 5694 5696 5698 5700 5702 5704 5705 5707 5709 5710 5711 5712 5714 5715 5716 5717 5717 5717 5718 5718 5718 5718 5718 5718 5718 5717 5716 5716 5715 5713 5712 5710 5709 5706 5704 5701
5674 5677 5679 5681 5684 5686 5688 5690 5691 5693 5695 5697 5699 5700 5702 5703 5704 5706 5707 5708 5709 5709 5710 5711 5711 5711 5711 5711 5711 5710 5709 5709 5709 5708 5707 5706 5705 5703 5701 5699 5697 5695 5692 5689
5672 5675 5677 5680 5682 5683 5685 5687 5689 5690 5692 5694 5695 5697 5698 5699 5700 5701 5702 5703 5703 5704 5704 5704 5704 5704 5704 5704 5703 5702 5701 5700 5700 5699 5698 5696 5694 5693 5690 5688 5685 5682 5679 5676
5670 5673 5675 5677 5679 5681 5683 5684 5686 5687 5689 5690 5692 5693 5694 5694 5695 5696 5697 5697 5697 5698 5697 5697 5697 5696 5696 5695 5694 5693 5692 5691 5690 5689 5687 5685 5683 5681 5678 5675 5673 5669 5666 5662
5669 5671 5673 5675 5677 5678 5680 5682 5683 5684 5686 5687 5688 5689 5689 5690 5691 5691 5691 5691 5691 5691 5691 5690 5689 5689 5688 5687 5686 5684 5683 5681 5680 5678 5676 5674 5671 5668 5665 5662 5659 5656 5652 5649
5668 5669 5671 5673 5675 5676 5678 5679 5680 5681 5682 5683 5683 5684 5684 5685 5685 5685 5685 5685 5685 5684 5684 5683 5682 5681 5679 5678 5676 5675 5673 5671 5669 5667 5664 5661 5658 5655 5652 5649 5646 5643 5639 5636
5666 5668 5670 5671 5672 5673 5675 5676 5677 5677 5678 5679 5679 5679 5679 5679 5679 5679 5679 5679 5678 5677 5676 5675 5674 5673 5671 5669 5667 5665 5663 5660 5658 5655 5652 5649 5646 5643 5640 5636 5633 5630 5627 5623
Wind_Speed
25 23 21 20 22 21 21 20 19 20 22 21 18 16 15 14 15 16 15 14 13 13 12 11 11 11 11 11 10 10 10 10 10 10 10 10 11 10 10 11 11 10 11 11
27 25 24 23 22 21 21 19 18 21 24 22 19 17 15 15 16 17 17 15 14 14 13 13 12 11 11 11 10 10 11 10 10 10 10 11 11 11 11 11 10 10 11 11
26 24 23 24 21 21 20 21 21 23 25 24 20 18 17 18 19 18 18 17 16 15 14 14 13 13 12 12 11 11 11 11 11 11 11 11 11 11 12 12 11 11 11 11
26 25 24 21 20 19 21 23 23 24 23 24 23 21 20 21 20 18 19 18 17 16 16 16 15 15 13 12 12 12 12 12 12 12 12 12 13 13 13 12 12 13 13 13
25 24 24 21 20 21 23 23 24 24 23 23 23 21 21 22 21 20 20 19 19 18 18 18 17 16 15 14 13 12 12 12 12 12 13 14 14 14 14 13 13 13 14 14
25 24 22 22 23 23 23 23 24 23 22 22 23 23 22 22 22 21 21 21 20 19 19 18 18 18 17 16 15 14 14 14 14 14 14 14 15 15 14 14 14 15 15 16
26 25 24 24 24 24 24 24 24 23 22 21 23 24 23 22 22 22 21 21 20 21 20 19 19 19 19 18 17 17 16 16 16 16 16 15 15 15 15 15 16 16 16 16
27 27 25 26 26 26 25 25 25 24 23 23 23 23 23 22 22 22 21 21 21 21 21 21 21 20 20 20 19 19 18 18 18 17 17 17 17 17 17 17 17 18 18 18
26 26 27 27 27 26 25 24 24 24 24 23 23 24 23 23 22 22 22 21 20 20 21 22 22 22 22 22 21 20 20 19 19 19 19 19 19 19 19 19 19 20 20 21
27 27 27 26 26 26 26 25 24 23 23 23 23 24 24 23 23 22 21 21 20 21 21 22 22 23 23 23 23 22 22 21 21 20 20 20 21 21 21 21 22 22 23 23
25 27 27 27 27 26 26 25 25 24 23 23 23 23 23 23 23 23 22 22 22 22 22 23 23 23 24 24 24 23 23 23 23 22 22 22 22 23 23 23 24 25 25 26
24 25 25 26 26 25 25 25 24 24 23 23 23 22 23 23 23 23 22 22 22 22 22 23 23 23 24 24 24 24 24 24 24 23 23 24 25 25 25 26 26 27 27 27
24 23 24 25 25 24 23 23 24 24 23 23 22 23 23 23 23 23 23 22 22 22 22 22 23 23 23 24 24 24 24 25 26 25 25 25 26 26 26 26 27 28 29 30
24 23 23 24 24 23 23 23 23 23 23 22 21 22 23 23 22 22 22 21 21 21 21 22 22 23 23 24 24 25 24 25 26 26 26 26 27 28 28 28 28 28 29 30
23 23 23 22 21 21 22 23 22 22 22 23 22 23 22 22 22 21 21 21 22 22 21 21 21 21 22 23 24 24 24 25 25 26 27 28 29 29 29 29 29 29 30 31
21 21 22 21 21 20 20 21 21 21 21 22 23 23 23 22 21 21 21 21 21 21 21 21 21 21 22 23 24 25 26 26 26 27 28 30 31 31 30 30 31 32 33 34
18 20 20 20 19 19 19 19 19 19 19 20 22 23 23 22 22 21 21 20 20 21 21 22 21 22 22 24 25 26 27 27 28 28 28 29 30 31 31 32 33 34 35 36
15 17 18 18 17 17 17 17 17 18 19 19 20 20 20 20 20 20 20 20 21 22 22 22 23 23 23 24 24 25 27 28 29 29 29 30 32 32 33 34 35 36 36 37
15 15 15 16 16 15 15 14 15 16 17 16 17 18 17 18 18 18 18 19 20 21 22 22 22 23 24 25 25 26 27 28 28 29 30 31 32 33 35 36 37 37 38 39
15 15 15 14 14 13 13 13 14 15 15 15 15 16 17 18 19 19 19 19 20 21 21 22 23 24 24 25 26 27 28 27 28 30 31 32 33 35 36 37 37 37 38 39
14 14 14 14 13 12 12 13 13 14 14 14 14 15 16 17 18 19 19 20 20 20 21 22 22 23 24 25 26 26 26 27 29 30 31 32 33 34 35 35 36 37 39 40
14 13 14 13 12 12 12 12 13 13 13 13 14 14 15 15 16 17 17 18 19 20 21 22 23 24 24 24 24 25 26 28 29 30 31 32 33 33 34 36 38 40 41 42
14 14 14 13 13 13 13 14 14 14 13 13 13 14 15 16 17 17 19 19 20 21 22 23 23 23 24 24 25 26 27 28 29 30 31 33 34 35 36 38 39 40 41 42
13 13 13 13 12 12 12 12 12 12 13 13 14 14 15 16 17 17 19 20 21 22 22 22 22 23 24 26 27 27 28 30 31 32 33 34 36 37 38 39 41 41 42 43
12 13 13 12 12 11 11 12 12 12 13 14 15 16 17 18 19 20 20 20 21 21 21 22 22 24 25 27 28 29 30 32 33 34 36 37 38 39 40 41 41 42 42 42
13 12 13 13 12 12 13 13 14 14 14 14 15 16 16 17 17 17 17 18 19 20 22 23 23 24 25 27 28 30 31 33 34 35 36 36 37 38 38 39 40 40 40 40
12 12 13 13 13 14 14 14 15 15 15 15 15 15 16 16 16 17 18 19 20 21 22 23 25 26 28 29 30 32 33 33 34 34 34 35 35 36 36 37 37 37 37 37
Wind_Direction
226 232 236 235 233 237 239 240 246 255 259 262 254 253 248 246 247 250 249 248 242 237 234 230 225 223 223 221 223 222 221 220 220 222 224 223 220 220 222 223 227 231 236 242
228 230 234 235 238 240 242 242 247 254 256 253 252 249 248 250 253 252 249 247 241 238 237 234 231 229 227 226 225 223 222 220 221 222 224 223 222 224 224 228 234 240 244 248
232 236 238 239 238 237 242 246 246 249 254 254 257 253 253 249 249 247 246 244 242 236 235 234 232 231 230 229 228 228 226 224 225 227 227 224 224 228 233 237 241 246 250 253
231 232 236 238 241 235 238 241 244 246 251 252 252 250 247 245 243 245 245 244 242 237 234 234 233 231 230 230 230 232 231 229 226 227 227 228 231 235 238 242 246 250 253 257
234 235 238 238 242 242 242 241 242 244 248 249 246 244 245 245 245 246 244 242 239 236 236 233 229 229 231 232 232 231 231 230 230 231 231 233 236 240 243 247 251 255 258 261
235 238 240 238 239 242 247 249 247 247 247 244 244 243 243 244 243 241 241 240 239 236 236 232 229 231 234 235 234 232 233 235 234 236 237 238 239 243 247 251 254 258 262 263
235 237 240 240 238 238 243 247 249 249 247 246 243 242 242 241 239 237 240 240 238 236 234 234 233 234 235 236 236 236 237 239 239 242 242 244 245 249 252 254 257 261 264 266
236 238 237 239 239 240 243 246 249 249 246 245 242 240 238 238 236 236 239 238 235 234 234 235 236 237 237 238 238 239 240 242 242 245 246 249 251 253 255 258 260 262 265 267
236 237 239 239 241 244 242 244 247 246 244 243 240 240 239 237 235 236 236 235 233 232 235 237 238 239 240 242 241 242 243 244 245 248 250 251 253 256 259 262 264 267 268 269
238 240 242 241 243 245 244 244 244 245 242 241 241 237 236 236 234 233 236 236 235 237 238 240 241 241 240 242 244 244 244 245 247 249 253 255 258 260 262 264 268 269 270 272
239 242 245 245 243 245 244 245 245 244 240 239 236 236 233 233 234 234 236 236 237 239 241 242 242 242 242 243 245 246 244 245 247 250 253 256 259 261 264 266 269 270 272 275
242 242 244 243 243 244 245 245 242 240 240 238 236 236 235 236 235 234 237 238 238 240 241 241 243 244 244 245 246 246 246 247 249 253 257 260 263 265 267 269 270 271 273 276
243 244 244 243 242 243 243 242 241 239 238 235 234 234 234 236 238 238 239 240 240 242 242 242 243 245 245 247 249 249 248 250 251 253 258 261 263 265 267 269 271 272 275 277
241 241 242 243 244 242 239 238 239 238 234 233 235 233 234 236 237 237 239 241 242 243 242 244 246 246 246 247 248 248 251 253 252 254 257 260 262 265 268 270 271 273 276 277
240 240 239 240 242 241 239 238 239 238 234 233 233 233 233 235 237 238 239 241 243 243 244 246 248 247 246 247 246 248 251 253 255 256 258 260 264 267 269 270 271 271 274 276
237 237 236 237 240 239 237 235 236 235 233 232 231 231 234 235 235 236 239 241 243 245 246 249 250 249 249 248 249 250 253 255 257 259 261 262 264 266 270 273 274 275 277 278
231 231 231 232 231 231 231 230 231 231 229 229 229 231 235 236 236 237 239 242 245 247 249 251 252 253 252 252 253 255 257 258 260 261 264 266 267 271 274 275 278 279 280 280
226 224 224 224 222 225 228 229 230 230 231 229 228 230 233 234 236 238 241 245 246 247 249 251 253 255 255 256 257 258 261 261 261 262 264 267 269 271 273 276 279 280 280 281
216 213 214 216 217 220 223 226 229 231 230 228 231 234 237 236 238 240 243 246 248 250 251 253 254 256 258 259 260 264 266 264 264 265 267 268 271 273 276 279 281 281 281 282
214 213 214 215 216 219 222 226 230 230 229 229 232 236 239 241 243 244 249 253 253 254 255 256 259 259 259 261 263 264 265 266 267 269 270 271 274 276 279 281 282 282 282 284
210 213 210 212 215 220 225 229 232 232 232 234 236 240 242 244 247 251 255 255 255 257 259 261 264 265 263 264 266 267 269 270 272 273 274 275 277 279 280 281 282 284 285 287
212 213 213 216 221 227 231 233 234 234 237 241 244 247 248 247 248 252 255 258 261 263 264 264 266 267 267 268 270 272 274 275 275 276 276 278 280 282 284 285 285 285 286 287
213 214 217 223 229 233 234 235 238 239 241 244 248 251 251 251 252 256 257 260 263 264 267 269 271 273 273 273 274 275 276 278 279 281 281 282 283 284 285 287 287 287 288 289
212 213 217 220 224 229 231 233 236 239 243 247 250 253 258 260 261 263 264 264 265 269 271 274 276 277 278 279 279 280 281 282 284 284 285 285 285 287 288 289 290 291 292 293
208 212 217 219 222 228 233 237 241 246 251 254 257 262 265 266 266 268 270 272 274 276 279 281 281 282 283 283 283 285 285 284 286 287 287 288 289 290 290 291 291 292 292 293
211 215 219 223 229 235 236 240 246 251 255 259 263 265 266 268 270 273 276 279 282 285 287 287 288 289 289 288 288 287 287 287 288 289 289 289 289 290 290 290 291 291 291 291
216 220 224 230 236 238 242 247 251 254 259 264 267 270 273 276 277 280 283 286 288 289 290 291 291 291 292 293 293 292 291 290 291 291 292 293 293 292 291 291 291 292 292 291